When you browse on this site, cookies collect data to enhance your experience and personalize the content and advertising you see.
Visit our Privacy Policy to learn more. By continuing to use the site, you agree to this use of cookies and data.
EN

Hourly Weather Al Hufuf

Today, 11 August, Tuesday

Time Temperature Precipitation Wind Pressure Humidity
00:00 +36°C° 0 mm 4 mps 738 mmHg 19%
01:00 +35°C° 0 mm 4 mps 737 mmHg 17%
02:00 +35°C° 0 mm 5 mps 737 mmHg 15%
03:00 +34°C° 0 mm 5 mps 737 mmHg 14%
04:00 +34°C° 0 mm 5 mps 738 mmHg 14%
05:00 +34°C° 0 mm 6 mps 738 mmHg 13%
06:00 +34°C° 0 mm 6 mps 739 mmHg 13%
07:00 +38°C° 0 mm 7 mps 739 mmHg 13%
08:00 +40°C° 0 mm 8 mps 738 mmHg 13%
09:00 +44°C° 0 mm 9 mps 738 mmHg 13%
10:00 +45°C° 0 mm 9 mps 738 mmHg 12%
11:00 +46°C° 0 mm 8 mps 738 mmHg 11%
12:00 +49°C° 0 mm 7 mps 738 mmHg 10%
13:00 +49°C° 0 mm 7 mps 738 mmHg 10%
14:00 +50°C° 0 mm 7 mps 737 mmHg 9%
15:00 +50°C° 0 mm 7 mps 737 mmHg 9%
16:00 +47°C° 0 mm 7 mps 737 mmHg 11%
17:00 +45°C° 0 mm 6 mps 737 mmHg 12%
18:00 +43°C° 0 mm 5 mps 737 mmHg 14%
19:00 +41°C° 0 mm 4 mps 737 mmHg 16%
20:00 +38°C° 0 mm 3 mps 737 mmHg 19%
21:00 +36°C° 0 mm 2 mps 737 mmHg 21%
22:00 +35°C° 0 mm 2 mps 737 mmHg 21%
23:00 +35°C° 0 mm 3 mps 737 mmHg 20%

Tomorrow, 12 August, Wednesday

Time Temperature Precipitation Wind Pressure Humidity
00:00 +35°C° 0 mm 3 mps 737 mmHg 19%
01:00 +35°C° 0 mm 3 mps 737 mmHg 18%
02:00 +35°C° 0 mm 3 mps 737 mmHg 18%
03:00 +35°C° 0 mm 4 mps 737 mmHg 17%
04:00 +35°C° 0 mm 4 mps 737 mmHg 17%
05:00 +35°C° 0 mm 4 mps 737 mmHg 17%
06:00 +35°C° 0 mm 4 mps 738 mmHg 18%
07:00 +37°C° 0 mm 5 mps 738 mmHg 16%
08:00 +41°C° 0 mm 6 mps 738 mmHg 14%
09:00 +44°C° 0 mm 7 mps 739 mmHg 13%
10:00 +46°C° 0 mm 7 mps 738 mmHg 12%
11:00 +47°C° 0 mm 6 mps 738 mmHg 11%
12:00 +48°C° 0 mm 6 mps 738 mmHg 11%
13:00 +49°C° 0 mm 6 mps 738 mmHg 10%
14:00 +49°C° 0 mm 5 mps 737 mmHg 10%
15:00 +49°C° 0 mm 5 mps 737 mmHg 10%
16:00 +47°C° 0 mm 5 mps 737 mmHg 12%
17:00 +45°C° 0 mm 4 mps 737 mmHg 15%
18:00 +43°C° 0 mm 4 mps 737 mmHg 17%
19:00 +39°C° 0 mm 3 mps 737 mmHg 21%
20:00 +37°C° 0 mm 3 mps 737 mmHg 26%
21:00 +35°C° 0 mm 2 mps 738 mmHg 30%
22:00 +35°C° 0 mm 2 mps 737 mmHg 29%
23:00 +34°C° 0 mm 2 mps 737 mmHg 28%

Day after tomorrow, 13 August, Thursday

Time Temperature Precipitation Wind Pressure Humidity
00:00 +34°C° 0 mm 2 mps 737 mmHg 26%
01:00 +34°C° 0 mm 2 mps 737 mmHg 25%
02:00 +34°C° 0 mm 3 mps 736 mmHg 24%
03:00 +35°C° 0 mm 3 mps 736 mmHg 23%
04:00 +35°C° 0 mm 4 mps 736 mmHg 23%
05:00 +35°C° 0 mm 4 mps 737 mmHg 23%
06:00 +35°C° 0 mm 4 mps 737 mmHg 23%
07:00 +38°C° 0 mm 4 mps 737 mmHg 19%
08:00 +42°C° 0 mm 4 mps 738 mmHg 15%
09:00 +46°C° 0 mm 5 mps 738 mmHg 11%
10:00 +47°C° 0 mm 5 mps 737 mmHg 10%
11:00 +48°C° 0 mm 5 mps 737 mmHg 9%
12:00 +50°C° 0 mm 5 mps 737 mmHg 7%
13:00 +50°C° 0 mm 5 mps 736 mmHg 7%
14:00 +50°C° 0 mm 5 mps 735 mmHg 7%
15:00 +52°C° 0 mm 6 mps 735 mmHg 7%
16:00 +49°C° 0 mm 5 mps 735 mmHg 9%
17:00 +47°C° 0 mm 4 mps 735 mmHg 11%
18:00 +44°C° 0 mm 4 mps 735 mmHg 13%
19:00 +40°C° 0 mm 3 mps 735 mmHg 19%
20:00 +38°C° 0 mm 2 mps 735 mmHg 25%
21:00 +34°C° 0 mm 1 mps 736 mmHg 31%
22:00 +34°C° 0 mm 1 mps 735 mmHg 30%
23:00 +35°C° 0 mm 2 mps 735 mmHg 29%

14 August, Friday

Time Temperature Precipitation Wind Pressure Humidity
00:00 +35°C° 0 mm 2 mps 735 mmHg 28%
01:00 +35°C° 0 mm 3 mps 734 mmHg 25%
02:00 +36°C° 0 mm 3 mps 734 mmHg 22%
03:00 +36°C° 0 mm 3 mps 734 mmHg 19%
04:00 +36°C° 0 mm 4 mps 734 mmHg 18%
05:00 +36°C° 0 mm 4 mps 735 mmHg 17%
06:00 +36°C° 0 mm 4 mps 735 mmHg 16%
07:00 +40°C° 0 mm 5 mps 735 mmHg 14%
08:00 +44°C° 0 mm 6 mps 736 mmHg 12%
09:00 +47°C° 0 mm 6 mps 736 mmHg 9%
10:00 +48°C° 0 mm 6 mps 736 mmHg 9%
11:00 +49°C° 0 mm 6 mps 735 mmHg 8%
12:00 +52°C° 0 mm 6 mps 735 mmHg 8%
13:00 +52°C° 0 mm 6 mps 734 mmHg 8%
14:00 +52°C° 0 mm 6 mps 734 mmHg 7%
15:00 +53°C° 0 mm 6 mps 733 mmHg 7%
16:00 +49°C° 0 mm 6 mps 733 mmHg 10%
17:00 +47°C° 0 mm 5 mps 733 mmHg 13%
18:00 +43°C° 0 mm 4 mps 733 mmHg 17%
19:00 +40°C° 0 mm 3 mps 734 mmHg 24%
20:00 +38°C° 0 mm 2 mps 734 mmHg 32%
21:00 +35°C° 0 mm 2 mps 734 mmHg 39%
22:00 +35°C° 0 mm 2 mps 734 mmHg 38%
23:00 +34°C° 0 mm 2 mps 734 mmHg 37%

15 August, Saturday

Time Temperature Precipitation Wind Pressure Humidity
00:00 +34°C° 0 mm 2 mps 733 mmHg 35%
01:00 +35°C° 0 mm 2 mps 733 mmHg 30%
02:00 +35°C° 0 mm 3 mps 733 mmHg 25%
03:00 +36°C° 0 mm 3 mps 733 mmHg 20%
04:00 +36°C° 0 mm 4 mps 733 mmHg 19%
05:00 +36°C° 0 mm 4 mps 734 mmHg 18%
06:00 +36°C° 0 mm 4 mps 734 mmHg 17%
07:00 +40°C° 0 mm 5 mps 734 mmHg 15%
08:00 +43°C° 0 mm 5 mps 734 mmHg 13%
09:00 +47°C° 0 mm 6 mps 735 mmHg 11%
10:00 +48°C° 0 mm 6 mps 734 mmHg 10%
11:00 +49°C° 0 mm 6 mps 734 mmHg 9%
12:00 +52°C° 0 mm 6 mps 734 mmHg 8%
13:00 +52°C° 0 mm 7 mps 734 mmHg 8%
14:00 +53°C° 0 mm 7 mps 733 mmHg 7%
15:00 +54°C° 0 mm 8 mps 733 mmHg 7%
16:00 +51°C° 0 mm 8 mps 733 mmHg 8%
17:00 +49°C° 0 mm 7 mps 733 mmHg 9%
18:00 +46°C° 0 mm 7 mps 733 mmHg 10%
19:00 +42°C° 0 mm 5 mps 733 mmHg 14%
20:00 +40°C° 0 mm 4 mps 734 mmHg 17%
21:00 +37°C° 0 mm 2 mps 734 mmHg 20%
22:00 +36°C° 0 mm 2 mps 734 mmHg 20%
23:00 +35°C° 0 mm 2 mps 734 mmHg 20%

16 August, Sunday

Time Temperature Precipitation Wind Pressure Humidity
00:00 +33°C° 0 mm 1 mps 733 mmHg 20%
01:00 +35°C° 0 mm 2 mps 733 mmHg 19%
02:00 +35°C° 0 mm 2 mps 733 mmHg 18%
03:00 +35°C° 0 mm 3 mps 733 mmHg 18%
04:00 +35°C° 0 mm 3 mps 734 mmHg 19%
05:00 +35°C° 0 mm 3 mps 734 mmHg 20%
06:00 +35°C° 0 mm 3 mps 734 mmHg 22%
07:00 +38°C° 0 mm 4 mps 735 mmHg 20%
08:00 +42°C° 0 mm 5 mps 735 mmHg 18%
09:00 +46°C° 0 mm 5 mps 735 mmHg 17%
10:00 +47°C° 0 mm 6 mps 735 mmHg 14%
11:00 +49°C° 0 mm 6 mps 735 mmHg 12%
12:00 +52°C° 0 mm 7 mps 735 mmHg 10%
13:00 +52°C° 0 mm 7 mps 735 mmHg 9%
14:00 +52°C° 0 mm 8 mps 735 mmHg 9%
15:00 +53°C° 0 mm 9 mps 734 mmHg 8%
16:00 +50°C° 0 mm 8 mps 735 mmHg 9%
17:00 +47°C° 0 mm 6 mps 735 mmHg 10%
18:00 +46°C° 0 mm 5 mps 735 mmHg 11%
19:00 +42°C° 0 mm 4 mps 735 mmHg 16%
20:00 +39°C° 0 mm 3 mps 735 mmHg 20%
21:00 +36°C° 0 mm 2 mps 736 mmHg 24%
22:00 +35°C° 0 mm 2 mps 736 mmHg 25%
23:00 +34°C° 0 mm 1 mps 735 mmHg 25%
Show more